Location: Bay Ridge
(40.6340°N, 74.0146°W)
Time: 19:30:09
(UTC+00:00)

Cosmos 1892 - Pass Details

Date: 15 November 2019
Orbit: 504 x 525 km, 82.5° (Epoch: 10 December)

Event Time Altitude Azimuth Distance (km) Brightness Sun altitude
Rises 10:45:31 0° 212° (SSW) 2,612 6.1 -11.0°
Reaches altitude 10° 10:47:53 10° 225° (SW) 1,728 5.1 -10.6°
Maximum altitude 10:51:07 27° 284° (WNW) 1,018 3.6 -10.0°
Drops below altitude 10° 10:54:22 10° 343° (NNW) 1,731 5.0 -9.4°
Sets 10:56:45 0° 356° (N) 2,619 6.1 -9.0°
